{"data":{"norad_id":59326,"epoch":"2026-05-25T05:19:17.105664Z","epoch_age_seconds":59814,"freshness":"FRESH","line1":"1 59326U 24057G   26145.22172576  .00000589  00000+0  30940-4 0  9994","line2":"2 59326  43.0017 126.1066 0001110 255.5509 104.5220 15.27576258121419","mean_motion":15.27576258,"eccentricity":0.000111,"inclination_deg":43.0017,"raan_deg":126.1066,"arg_perigee_deg":255.5509,"mean_anomaly_deg":104.522,"bstar":3.094e-5,"rev_number":12141,"period_min":94.266979632515,"perigee_km":482.2987080563,"apogee_km":483.82189385711,"semimajor_km":6861.1973009567,"source":"CELESTRAK","updated_at":"2026-05-25T13:38:18.903866Z"}}